CPA749 VHHH-FAOR

Flight info

Callsign CPA749
Flight time N/A
Altitude 34000
Route PECAN V11 IDOSI P901 IKELA/K0939F340 A1 PAPRA/N0507F340 R575 SMU W32 DORNA Y3 PUT/N0502F360 P627 KADAP R348 LATEP/N0493F380 R348 RUPIG UR348 TIDOB/N0487F400 UR348 TNV UB536 EROPA/N0512F280 UB536 ETIVI DCT IMKAN UT446 IBGUB
Aircraft A359/H-SDE2E3GHIJ3J4J5LM1ORWXY/LB1D1

Departure

Time N/A
Airport Hong Kong International Airport (VHHH)

Arrival

Time 2026-05-08 01:45
Airport O.R. Tambo International Airport (FAOR)
Time Latitude Longitude Altitude Speed Heading
2026-05-07 19:29 -6.49598 74.27132 33846 ft 518 kts 245°
2026-05-07 19:29 -6.51070 74.23818 33846 ft 518 kts 245°
2026-05-07 19:30 -6.54009 74.17196 33845 ft 518 kts 245°
2026-05-07 19:30 -6.56947 74.10573 33845 ft 518 kts 245°
2026-05-07 19:31 -6.59888 74.03940 33845 ft 518 kts 245°
2026-05-07 19:31 -6.62805 73.97368 33845 ft 518 kts 245°
2026-05-07 19:32 -6.65746 73.90728 33846 ft 520 kts 245°
2026-05-07 19:32 -6.68695 73.84065 33845 ft 521 kts 245°
2026-05-07 19:33 -6.71641 73.77409 33851 ft 521 kts 245°
2026-05-07 19:33 -6.74589 73.70747 33851 ft 521 kts 245°
2026-05-07 19:34 -6.77535 73.64087 33851 ft 521 kts 245°
2026-05-07 19:34 -6.80468 73.57455 33851 ft 524 kts 245°
2026-05-07 19:35 -6.83431 73.50749 33850 ft 524 kts 245°
2026-05-07 19:35 -6.86392 73.44046 33852 ft 524 kts 245°
2026-05-07 19:36 -6.89357 73.37332 33852 ft 524 kts 245°
2026-05-07 19:36 -6.92319 73.30621 33848 ft 524 kts 245°
2026-05-07 19:37 -6.95288 73.23892 33851 ft 526 kts 246°
2026-05-07 19:37 -6.98238 73.17198 33850 ft 527 kts 246°
2026-05-07 19:38 -7.01215 73.10444 33849 ft 527 kts 246°
2026-05-07 19:38 -7.04192 73.03690 33856 ft 527 kts 246°
2026-05-07 19:39 -7.07169 72.96930 33854 ft 527 kts 246°
2026-05-07 19:39 -7.10147 72.90166 33855 ft 527 kts 246°
2026-05-07 19:40 -7.13097 72.83459 33855 ft 528 kts 246°
2026-05-07 19:40 -7.16071 72.76697 33855 ft 528 kts 246°
2026-05-07 19:41 -7.19043 72.69935 33859 ft 528 kts 246°
2026-05-07 19:41 -7.22011 72.63181 33860 ft 528 kts 246°
2026-05-07 19:42 -7.24981 72.56417 33857 ft 527 kts 246°
2026-05-07 19:42 -7.27929 72.49702 33861 ft 523 kts 246°
2026-05-07 19:43 -7.30869 72.43005 33858 ft 522 kts 246°
2026-05-07 19:43 -7.34244 72.36533 33861 ft 523 kts 241°
2026-05-07 19:44 -7.37788 72.30136 33860 ft 522 kts 240°
2026-05-07 19:44 -7.41331 72.23802 33860 ft 522 kts 240°
2026-05-07 19:45 -7.44898 72.17408 33860 ft 523 kts 240°
2026-05-07 19:45 -7.48456 72.11014 33863 ft 523 kts 240°
2026-05-07 19:46 -7.52016 72.04609 33859 ft 523 kts 240°
2026-05-07 19:46 -7.55572 71.98208 33860 ft 523 kts 240°
2026-05-07 19:47 -7.59127 71.91807 33859 ft 523 kts 240°
2026-05-07 19:47 -7.62651 71.85462 33862 ft 520 kts 240°
2026-05-07 19:48 -7.66181 71.79099 33867 ft 519 kts 240°
2026-05-07 19:48 -7.69707 71.72740 33866 ft 519 kts 240°
2026-05-07 19:49 -7.73231 71.66383 33864 ft 520 kts 240°
2026-05-07 19:49 -7.76757 71.60020 33867 ft 519 kts 240°
2026-05-07 19:50 -7.80282 71.53658 33868 ft 519 kts 240°
2026-05-07 19:50 -7.83798 71.47306 33870 ft 519 kts 240°
2026-05-07 19:51 -7.87320 71.40944 33869 ft 519 kts 240°
2026-05-07 19:51 -7.90814 71.34628 33863 ft 518 kts 240°
2026-05-07 19:52 -7.94325 71.28279 33867 ft 516 kts 240°
2026-05-07 19:52 -7.97812 71.21969 33869 ft 515 kts 240°
2026-05-07 19:53 -8.01298 71.15661 33870 ft 515 kts 240°
2026-05-07 19:53 -8.04785 71.09345 33864 ft 515 kts 240°
2026-05-07 19:54 -8.08273 71.03027 33872 ft 515 kts 240°
2026-05-07 19:54 -8.11759 70.96709 33868 ft 515 kts 240°
2026-05-07 19:55 -8.15220 70.90433 33866 ft 514 kts 240°
2026-05-07 19:55 -8.18699 70.84123 33874 ft 513 kts 240°
2026-05-07 19:56 -8.22160 70.77841 33870 ft 511 kts 240°
2026-05-07 19:56 -8.25609 70.71581 33870 ft 510 kts 241°
2026-05-07 19:57 -8.29049 70.65334 33869 ft 508 kts 241°
2026-05-07 19:57 -8.32481 70.59095 33870 ft 508 kts 241°
2026-05-07 19:58 -8.35910 70.52857 33872 ft 508 kts 241°
2026-05-07 19:58 -8.39319 70.46656 33873 ft 508 kts 241°
2026-05-07 19:59 -8.42752 70.40408 33874 ft 508 kts 241°
2026-05-07 19:59 -8.46183 70.34161 33876 ft 508 kts 241°
2026-05-07 20:00 -8.49615 70.27909 33878 ft 509 kts 241°
2026-05-07 20:00 -8.53049 70.21652 33880 ft 509 kts 241°
2026-05-07 20:01 -8.56461 70.15429 33876 ft 511 kts 241°
2026-05-07 20:01 -8.59903 70.09151 33878 ft 510 kts 241°
2026-05-07 20:02 -8.63332 70.02894 33877 ft 509 kts 241°
2026-05-07 20:02 -8.66763 69.96632 33878 ft 509 kts 241°
2026-05-07 20:03 -8.70190 69.90371 33882 ft 509 kts 241°
2026-05-07 20:03 -8.73614 69.84109 33880 ft 509 kts 241°
2026-05-07 20:04 -8.77058 69.77810 33881 ft 513 kts 241°
2026-05-07 20:04 -8.80510 69.71494 33882 ft 514 kts 241°
2026-05-07 20:05 -8.83945 69.65206 33882 ft 514 kts 241°
2026-05-07 20:05 -8.87396 69.58885 33885 ft 513 kts 241°
2026-05-07 20:06 -8.90849 69.52561 33879 ft 512 kts 241°
2026-05-07 20:06 -8.94291 69.46247 33880 ft 512 kts 242°
2026-05-07 20:07 -8.97709 69.39978 33881 ft 512 kts 241°
2026-05-07 20:07 -9.01145 69.33672 33881 ft 512 kts 241°
2026-05-07 20:08 -9.04005 69.28423 33881 ft 512 kts 241°
2026-05-07 20:08 -9.07440 69.22112 33887 ft 512 kts 241°
2026-05-07 20:09 -9.10872 69.15805 33887 ft 512 kts 242°
2026-05-07 20:10 -9.16035 69.06311 33890 ft 513 kts 242°
2026-05-07 20:10 -9.19452 69.00023 33885 ft 513 kts 242°
2026-05-07 20:11 -9.22885 68.93709 33889 ft 511 kts 242°
2026-05-07 20:11 -9.26311 68.87399 33888 ft 511 kts 242°
2026-05-07 20:12 -9.29731 68.81093 33890 ft 511 kts 242°
2026-05-07 20:12 -9.33154 68.74779 33890 ft 511 kts 242°
2026-05-07 20:13 -9.36578 68.68461 33888 ft 511 kts 242°
2026-05-07 20:13 -9.40004 68.62137 33886 ft 511 kts 242°
2026-05-07 20:14 -9.43421 68.55827 33884 ft 511 kts 242°
2026-05-07 20:14 -9.46821 68.49545 33891 ft 512 kts 242°
2026-05-07 20:15 -9.50240 68.43223 33891 ft 511 kts 242°
2026-05-07 20:15 -9.53655 68.36906 33892 ft 511 kts 242°
2026-05-07 20:16 -9.57069 68.30588 33894 ft 511 kts 242°
2026-05-07 20:16 -9.60460 68.24309 33892 ft 510 kts 242°
2026-05-07 20:17 -9.63870 68.17992 33889 ft 510 kts 242°
2026-05-07 20:17 -9.67282 68.11666 33892 ft 511 kts 242°
2026-05-07 20:18 -9.70691 68.05343 33891 ft 511 kts 242°
2026-05-07 20:18 -9.74101 67.99015 33893 ft 511 kts 242°
2026-05-07 20:19 -9.77513 67.92681 33891 ft 511 kts 242°
2026-05-07 20:19 -9.80897 67.86394 33890 ft 511 kts 242°
2026-05-07 20:20 -9.84302 67.80065 33892 ft 511 kts 242°
2026-05-07 20:20 -9.87710 67.73731 33894 ft 511 kts 243°
2026-05-07 20:21 -9.91112 67.67397 33896 ft 511 kts 243°
2026-05-07 20:21 -9.94513 67.61063 33893 ft 511 kts 242°
2026-05-07 20:22 -9.97914 67.54729 33894 ft 511 kts 243°
2026-05-07 20:22 -10.01311 67.48396 33893 ft 510 kts 242°
2026-05-07 20:23 -10.04680 67.42112 33896 ft 510 kts 242°
2026-05-07 20:23 -10.08072 67.35783 33897 ft 510 kts 242°
2026-05-07 20:24 -10.11458 67.29460 33899 ft 510 kts 242°
2026-05-07 20:24 -10.14845 67.23133 33895 ft 510 kts 243°
2026-05-07 20:25 -10.18228 67.16810 33899 ft 509 kts 242°
2026-05-07 20:25 -10.21604 67.10496 33899 ft 508 kts 242°
2026-05-07 20:26 -10.24979 67.04180 33894 ft 509 kts 242°
2026-05-07 20:26 -10.28335 66.97895 33897 ft 509 kts 242°
2026-05-07 20:27 -10.31704 66.91585 33896 ft 509 kts 242°
2026-05-07 20:27 -10.35076 66.85261 33894 ft 510 kts 242°
2026-05-07 20:28 -10.38461 66.78912 33897 ft 512 kts 242°
2026-05-07 20:28 -10.41851 66.72552 33897 ft 511 kts 242°
2026-05-07 20:29 -10.45129 66.66178 33900 ft 507 kts 244°
2026-05-07 20:29 -10.48229 66.59744 33901 ft 507 kts 245°
2026-05-07 20:30 -10.51306 66.53353 33899 ft 505 kts 244°
2026-05-07 20:30 -10.54421 66.46959 33899 ft 503 kts 244°
2026-05-07 20:31 -10.57534 66.40591 33899 ft 503 kts 244°
2026-05-07 20:31 -10.60652 66.34216 33898 ft 503 kts 244°
2026-05-07 20:32 -10.63768 66.27838 33897 ft 503 kts 244°
2026-05-07 20:32 -10.66860 66.21504 33900 ft 503 kts 244°
2026-05-07 20:33 -10.69970 66.15127 33902 ft 502 kts 244°
2026-05-07 20:33 -10.73076 66.08757 33901 ft 503 kts 245°
2026-05-07 20:34 -10.76188 66.02370 33903 ft 503 kts 244°
2026-05-07 20:34 -10.79277 65.96028 33903 ft 503 kts 244°
2026-05-07 20:35 -10.82382 65.89647 33899 ft 504 kts 245°
2026-05-07 20:35 -10.85497 65.83244 33903 ft 505 kts 245°
2026-05-07 20:36 -10.88608 65.76841 33905 ft 505 kts 245°
2026-05-07 20:36 -10.91716 65.70440 33906 ft 504 kts 245°
2026-05-07 20:37 -10.94805 65.64076 33905 ft 504 kts 245°
2026-05-07 20:37 -10.97913 65.57670 33903 ft 505 kts 245°
2026-05-07 20:38 -11.01018 65.51261 33906 ft 504 kts 245°
2026-05-07 20:38 -11.04114 65.44872 33906 ft 502 kts 245°
2026-05-07 20:39 -11.07203 65.38494 33906 ft 502 kts 245°
2026-05-07 20:39 -11.10267 65.32159 33906 ft 502 kts 245°
2026-05-07 20:40 -11.13354 65.25776 33907 ft 501 kts 245°
2026-05-07 20:40 -11.16425 65.19421 33906 ft 500 kts 245°
2026-05-07 20:41 -11.19494 65.13062 33902 ft 499 kts 245°
2026-05-07 20:41 -11.22544 65.06742 33906 ft 500 kts 245°
2026-05-07 20:42 -11.25608 65.00388 33906 ft 500 kts 245°
2026-05-07 20:42 -11.28673 64.94030 33907 ft 499 kts 246°
2026-05-07 20:43 -11.31723 64.87694 33910 ft 497 kts 245°
2026-05-07 20:43 -11.34772 64.81360 33909 ft 497 kts 245°
2026-05-07 20:44 -11.37817 64.75031 33911 ft 497 kts 245°
2026-05-07 20:44 -11.40839 64.68747 33908 ft 497 kts 246°
2026-05-07 20:45 -11.43879 64.62415 33906 ft 497 kts 245°
2026-05-07 20:45 -11.46921 64.56078 33911 ft 497 kts 246°
2026-05-07 20:46 -11.49960 64.49742 33909 ft 497 kts 245°
2026-05-07 20:46 -11.52995 64.43413 33910 ft 497 kts 246°
2026-05-07 20:47 -11.56032 64.37073 33911 ft 496 kts 245°
2026-05-07 20:47 -11.59031 64.30807 33907 ft 493 kts 246°
2026-05-07 20:48 -11.62037 64.24522 33911 ft 492 kts 246°
2026-05-07 20:48 -11.65036 64.18248 33910 ft 492 kts 246°
2026-05-07 20:49 -11.68029 64.11982 33912 ft 492 kts 246°
2026-05-07 20:49 -11.71022 64.05711 33909 ft 492 kts 246°
2026-05-07 20:50 -11.74016 63.99438 33908 ft 491 kts 245°
2026-05-07 20:50 -11.77006 63.93166 33906 ft 491 kts 246°
2026-05-07 20:51 -11.79978 63.86928 33916 ft 491 kts 246°
2026-05-07 20:51 -11.82968 63.80648 33911 ft 492 kts 246°
2026-05-07 20:52 -11.85949 63.74379 33911 ft 490 kts 246°
2026-05-07 20:52 -11.88922 63.68130 33912 ft 489 kts 246°
2026-05-07 20:53 -11.91891 63.61880 33911 ft 489 kts 246°
2026-05-07 20:53 -11.94863 63.55621 33910 ft 489 kts 246°
2026-05-07 20:54 -11.97807 63.49417 33913 ft 489 kts 246°
2026-05-07 20:54 -12.00774 63.43159 33912 ft 489 kts 246°
2026-05-07 20:55 -12.03734 63.36911 33913 ft 489 kts 246°
2026-05-07 20:55 -12.06694 63.30661 33914 ft 488 kts 246°
2026-05-07 20:56 -12.09650 63.24414 33921 ft 488 kts 246°
2026-05-07 20:56 -12.12587 63.18202 33920 ft 487 kts 246°
2026-05-07 20:57 -12.15534 63.11966 33921 ft 487 kts 246°
2026-05-07 20:57 -12.18479 63.05729 33917 ft 487 kts 246°
2026-05-07 20:58 -12.20924 63.00546 33924 ft 487 kts 246°
2026-05-07 20:58 -12.23869 62.94303 33920 ft 487 kts 246°
2026-05-07 20:59 -12.27289 62.87045 33919 ft 487 kts 246°
2026-05-07 20:59 -12.29754 62.81811 33919 ft 487 kts 246°
2026-05-07 21:00 -12.32690 62.75572 33920 ft 487 kts 246°
2026-05-07 21:00 -12.35612 62.69359 33922 ft 487 kts 246°
2026-05-07 21:01 -12.38550 62.63107 33920 ft 487 kts 246°
2026-05-07 21:01 -12.41481 62.56867 33923 ft 486 kts 246°
2026-05-07 21:02 -12.44408 62.50628 33919 ft 486 kts 246°
2026-05-07 21:02 -12.47333 62.44390 33917 ft 486 kts 246°
2026-05-07 21:03 -12.50254 62.38156 33920 ft 486 kts 246°
2026-05-07 21:03 -12.53157 62.31958 33910 ft 486 kts 246°
2026-05-07 21:04 -12.56078 62.25716 33922 ft 486 kts 246°
2026-05-07 21:04 -12.58995 62.19478 33917 ft 486 kts 246°
2026-05-07 21:05 -12.61911 62.13237 33925 ft 486 kts 246°
2026-05-07 21:05 -12.64818 62.07011 33934 ft 483 kts 247°
2026-05-07 21:06 -12.67709 62.00816 33920 ft 482 kts 247°
2026-05-07 21:06 -12.70599 61.94616 33919 ft 482 kts 247°
2026-05-07 21:07 -12.73466 61.88463 33928 ft 481 kts 247°
2026-05-07 21:07 -12.76346 61.82276 33926 ft 480 kts 247°
2026-05-07 21:08 -12.79224 61.76090 33935 ft 480 kts 247°
2026-05-07 21:08 -12.82098 61.69907 33925 ft 480 kts 247°
2026-05-07 21:09 -12.84970 61.63726 33928 ft 480 kts 247°
2026-05-07 21:09 -12.87840 61.57543 33930 ft 480 kts 247°
2026-05-07 21:10 -12.90690 61.51398 33929 ft 480 kts 247°
2026-05-07 21:10 -12.93558 61.45210 33931 ft 480 kts 247°
2026-05-07 21:11 -12.96423 61.39026 33932 ft 480 kts 247°
2026-05-07 21:11 -13.00700 61.29783 33930 ft 480 kts 247°
2026-05-07 21:12 -13.03560 61.23599 33933 ft 480 kts 247°
2026-05-07 21:12 -13.06419 61.17410 33934 ft 480 kts 247°
2026-05-07 21:13 -13.09275 61.11223 33932 ft 480 kts 247°
2026-05-07 21:13 -13.12129 61.05036 33951 ft 480 kts 247°
2026-05-07 21:14 -13.14966 60.98882 33936 ft 479 kts 247°
2026-05-07 21:14 -13.17813 60.92702 33935 ft 479 kts 247°
2026-05-07 21:15 -13.20657 60.86522 33938 ft 479 kts 247°
2026-05-07 21:15 -13.23499 60.80343 33941 ft 479 kts 247°
2026-05-07 21:16 -13.26341 60.74158 33941 ft 478 kts 247°
2026-05-07 21:16 -13.29179 60.67979 33943 ft 478 kts 247°
2026-05-07 21:17 -13.31998 60.61835 33939 ft 478 kts 247°
2026-05-07 21:17 -13.34832 60.55655 33941 ft 478 kts 247°
2026-05-07 21:18 -13.37667 60.49466 33946 ft 478 kts 247°
2026-05-07 21:18 -13.40497 60.43286 33943 ft 476 kts 247°
2026-05-07 21:19 -13.43313 60.37131 33945 ft 475 kts 247°
2026-05-07 21:19 -13.46107 60.31017 33942 ft 475 kts 247°
2026-05-07 21:20 -13.48918 60.24863 33943 ft 475 kts 247°
2026-05-07 21:20 -13.51730 60.18704 33943 ft 475 kts 247°
2026-05-07 21:21 -13.54537 60.12549 33944 ft 475 kts 247°
2026-05-07 21:21 -13.57343 60.06394 33946 ft 475 kts 247°
2026-05-07 21:22 -13.60126 60.00279 33948 ft 475 kts 247°
2026-05-07 21:22 -13.62925 59.94126 33956 ft 475 kts 247°
2026-05-07 21:23 -13.65722 59.87972 33948 ft 474 kts 247°
2026-05-07 21:23 -13.68517 59.81819 33945 ft 475 kts 247°
2026-05-07 21:24 -13.71315 59.75653 33946 ft 476 kts 247°
2026-05-07 21:24 -13.74115 59.69479 33949 ft 476 kts 247°
2026-05-07 21:25 -13.76908 59.63316 33951 ft 476 kts 247°
2026-05-07 21:25 -13.79691 59.57170 33944 ft 476 kts 247°
2026-05-07 21:26 -13.82492 59.50979 33949 ft 477 kts 247°
2026-05-07 21:26 -13.85292 59.44786 33948 ft 477 kts 247°
2026-05-07 21:27 -13.88093 59.38588 33954 ft 478 kts 246°
2026-05-07 21:27 -13.90903 59.32360 33949 ft 481 kts 246°
2026-05-07 21:28 -13.93727 59.26097 33952 ft 482 kts 246°
2026-05-07 21:28 -13.96528 59.19879 33953 ft 482 kts 246°
2026-05-07 21:29 -13.99344 59.13625 33949 ft 482 kts 246°
2026-05-07 21:29 -14.02164 59.07356 33951 ft 482 kts 246°
2026-05-07 21:30 -14.04982 59.01087 33954 ft 482 kts 246°
2026-05-07 21:30 -14.07795 58.94825 33954 ft 483 kts 246°
2026-05-07 21:31 -14.10621 58.88526 33956 ft 484 kts 245°
2026-05-07 21:31 -14.13451 58.82214 33957 ft 487 kts 245°
2026-05-07 21:32 -14.16285 58.75890 33959 ft 487 kts 245°
2026-05-07 21:32 -14.19104 58.69592 33951 ft 487 kts 245°
2026-05-07 21:33 -14.21948 58.63232 33953 ft 487 kts 245°
2026-05-07 21:33 -14.24783 58.56888 33960 ft 488 kts 245°
2026-05-07 21:34 -14.27618 58.50538 33958 ft 487 kts 245°
2026-05-07 21:34 -14.30452 58.44190 33959 ft 488 kts 244°
2026-05-07 21:35 -14.33303 58.37800 33962 ft 491 kts 244°
2026-05-07 21:35 -14.36171 58.31363 33962 ft 495 kts 244°
2026-05-07 21:36 -14.39027 58.24938 33966 ft 496 kts 244°
2026-05-07 21:36 -14.41902 58.18467 33959 ft 496 kts 244°
2026-05-07 21:37 -14.44781 58.11985 33964 ft 497 kts 244°
2026-05-07 21:37 -14.47660 58.05498 33965 ft 497 kts 244°
2026-05-07 21:38 -14.50538 57.99007 33965 ft 497 kts 244°
2026-05-07 21:38 -14.53394 57.92560 33967 ft 497 kts 244°
2026-05-07 21:39 -14.56278 57.86047 33973 ft 498 kts 244°
2026-05-07 21:39 -14.59154 57.79543 33969 ft 497 kts 244°
2026-05-07 21:40 -14.62021 57.73055 33967 ft 497 kts 244°
2026-05-07 21:40 -14.64889 57.66558 33968 ft 497 kts 244°
2026-05-07 21:41 -14.67740 57.60096 33967 ft 496 kts 244°
2026-05-07 21:41 -14.70603 57.53597 33967 ft 496 kts 244°
2026-05-07 21:42 -14.73468 57.47091 33970 ft 497 kts 244°
2026-05-07 21:42 -14.76308 57.40636 33975 ft 497 kts 244°
2026-05-07 21:43 -14.79166 57.34133 33970 ft 496 kts 244°
2026-05-07 21:43 -14.82015 57.27647 33970 ft 495 kts 244°
2026-05-07 21:44 -14.84859 57.21164 33971 ft 494 kts 245°
2026-05-07 21:44 -14.87696 57.14690 33975 ft 494 kts 244°
2026-05-07 21:45 -14.90517 57.08249 33972 ft 494 kts 244°
2026-05-07 21:45 -14.93354 57.01765 33974 ft 495 kts 244°
2026-05-07 21:46 -14.96190 56.95277 33975 ft 495 kts 244°
2026-05-07 21:46 -14.99025 56.88786 33970 ft 495 kts 244°
2026-05-07 21:47 -15.01857 56.82299 33974 ft 494 kts 245°
2026-05-07 21:47 -15.04686 56.75827 33978 ft 493 kts 245°
2026-05-07 21:48 -15.07480 56.69403 33978 ft 493 kts 245°
2026-05-07 21:48 -15.10295 56.62923 33980 ft 493 kts 245°
2026-05-07 21:49 -15.12635 56.57539 33975 ft 493 kts 245°
2026-05-07 21:49 -15.15446 56.51067 33976 ft 493 kts 245°
2026-05-07 21:50 -15.18263 56.44575 33981 ft 493 kts 245°
2026-05-07 21:50 -15.21074 56.38092 33981 ft 493 kts 245°
2026-05-07 21:51 -15.23865 56.31651 33982 ft 493 kts 245°
2026-05-07 21:51 -15.26675 56.25167 33982 ft 493 kts 245°
2026-05-07 21:52 -15.29477 56.18680 33983 ft 493 kts 245°
2026-05-07 21:52 -15.32282 56.12181 33985 ft 493 kts 245°
2026-05-07 21:53 -15.35080 56.05696 33981 ft 493 kts 245°
2026-05-07 21:53 -15.37861 55.99245 33982 ft 494 kts 245°
2026-05-07 21:54 -15.40661 55.92747 33986 ft 494 kts 245°
2026-05-07 21:54 -15.43456 55.86253 33989 ft 493 kts 245°
2026-05-07 21:55 -15.46251 55.79755 33990 ft 492 kts 245°
2026-05-07 21:55 -15.49037 55.73265 33988 ft 492 kts 245°
2026-05-07 21:56 -15.51821 55.66775 33991 ft 492 kts 245°
2026-05-07 21:56 -15.54581 55.60336 33991 ft 492 kts 245°
2026-05-07 21:57 -15.57359 55.53861 33988 ft 492 kts 245°
2026-05-07 21:57 -15.60119 55.47361 33989 ft 492 kts 246°
2026-05-07 21:58 -15.62655 55.40762 33995 ft 491 kts 248°
2026-05-07 21:58 -15.65105 55.34184 33992 ft 491 kts 248°
2026-05-07 21:59 -15.67597 55.27582 33995 ft 491 kts 248°
2026-05-07 21:59 -15.70117 55.20978 33995 ft 492 kts 248°
2026-05-07 22:00 -15.72637 55.14388 33996 ft 491 kts 248°
2026-05-07 22:00 -15.75158 55.07786 33996 ft 491 kts 248°
2026-05-07 22:01 -15.77671 55.01194 33993 ft 491 kts 248°
2026-05-07 22:01 -15.80172 54.94628 33993 ft 492 kts 247°
2026-05-07 22:02 -15.82686 54.88018 33993 ft 492 kts 248°
2026-05-07 22:02 -15.85199 54.81404 33993 ft 491 kts 248°
2026-05-07 22:03 -15.87707 54.74797 33989 ft 491 kts 248°
2026-05-07 22:03 -15.90196 54.68234 33991 ft 491 kts 248°
2026-05-07 22:04 -15.92698 54.61628 33992 ft 491 kts 247°
2026-05-07 22:04 -15.95195 54.55031 33992 ft 491 kts 248°
2026-05-07 22:05 -15.97691 54.48422 33992 ft 490 kts 248°
2026-05-07 22:05 -16.00168 54.41821 33999 ft 490 kts 248°
2026-05-07 22:06 -16.02642 54.35214 33996 ft 490 kts 248°
2026-05-07 22:06 -16.05095 54.28669 33996 ft 489 kts 248°
2026-05-07 22:07 -16.07560 54.22081 33998 ft 488 kts 248°
2026-05-07 22:07 -16.10020 54.15502 33999 ft 487 kts 248°
2026-05-07 22:08 -16.12477 54.08924 33998 ft 487 kts 248°
2026-05-07 22:08 -16.14928 54.02352 34003 ft 487 kts 248°
2026-05-07 22:09 -16.17360 53.95827 34012 ft 487 kts 248°
2026-05-07 22:09 -16.19813 53.89251 34012 ft 487 kts 248°
2026-05-07 22:10 -16.22254 53.82684 34005 ft 485 kts 249°
2026-05-07 22:10 -16.24689 53.76129 34005 ft 484 kts 249°
2026-05-07 22:11 -16.27117 53.69585 34001 ft 485 kts 249°
2026-05-07 22:11 -16.29529 53.63075 34005 ft 485 kts 249°
2026-05-07 22:12 -16.31955 53.56523 34006 ft 484 kts 249°
2026-05-07 22:12 -16.34377 53.49977 34004 ft 484 kts 249°
2026-05-07 22:13 -16.36776 53.43484 34009 ft 485 kts 249°
2026-05-07 22:13 -16.39197 53.36926 34006 ft 485 kts 249°
2026-05-07 22:14 -16.41801 53.30448 34009 ft 485 kts 245°
2026-05-07 22:14 -16.44738 53.24126 34005 ft 484 kts 244°
2026-05-07 22:15 -16.47678 53.17797 34009 ft 484 kts 244°
2026-05-07 22:15 -16.50562 53.11439 34010 ft 484 kts 245°
2026-05-07 22:16 -16.53391 53.05123 34012 ft 485 kts 245°
2026-05-07 22:16 -16.56235 52.98757 34007 ft 485 kts 245°
2026-05-07 22:17 -16.59077 52.92394 34010 ft 485 kts 245°
2026-05-07 22:17 -16.61928 52.86010 34012 ft 484 kts 245°
2026-05-07 22:18 -16.66193 52.76450 34024 ft 484 kts 245°
2026-05-07 22:19 -16.69017 52.70112 34009 ft 484 kts 245°
2026-05-07 22:19 -16.71856 52.63733 34012 ft 485 kts 245°
2026-05-07 22:20 -16.74696 52.57345 34013 ft 485 kts 245°
2026-05-07 22:20 -16.77528 52.50970 34012 ft 485 kts 245°
2026-05-07 22:21 -16.80366 52.44575 34032 ft 485 kts 245°
2026-05-07 22:21 -16.83176 52.38237 34017 ft 484 kts 245°
2026-05-07 22:22 -16.86006 52.31849 34016 ft 484 kts 245°
2026-05-07 22:22 -16.88832 52.25460 34015 ft 484 kts 245°
2026-05-07 22:23 -16.91659 52.19064 34033 ft 485 kts 245°
2026-05-07 22:23 -16.94477 52.12681 34033 ft 485 kts 245°
2026-05-07 22:24 -16.97300 52.06282 34022 ft 484 kts 245°
2026-05-07 22:24 -17.00119 51.99885 34024 ft 484 kts 245°
2026-05-07 22:25 -17.02918 51.93528 34022 ft 484 kts 245°
2026-05-07 22:25 -17.05736 51.87119 34022 ft 484 kts 245°
2026-05-07 22:26 -17.08550 51.80714 34023 ft 484 kts 245°
2026-05-07 22:26 -17.11349 51.74305 34024 ft 485 kts 245°
2026-05-07 22:27 -17.14146 51.67939 34020 ft 485 kts 245°
2026-05-07 22:27 -17.16961 51.61528 34022 ft 484 kts 245°
2026-05-07 22:28 -17.19770 51.55114 34022 ft 485 kts 245°
2026-05-07 22:28 -17.22577 51.48692 34037 ft 485 kts 246°
2026-05-07 22:29 -17.25378 51.42276 34023 ft 485 kts 246°
2026-05-07 22:29 -17.28159 51.35901 34026 ft 484 kts 246°
2026-05-07 22:30 -17.30955 51.29486 34029 ft 484 kts 246°
2026-05-07 22:30 -17.33749 51.23068 34033 ft 484 kts 246°
2026-05-07 22:31 -17.36535 51.16660 34030 ft 484 kts 246°
2026-05-07 22:31 -17.39305 51.10285 34028 ft 484 kts 246°
2026-05-07 22:32 -17.42088 51.03871 34032 ft 484 kts 246°
2026-05-07 22:32 -17.44871 50.97453 34033 ft 483 kts 246°
2026-05-07 22:33 -17.47649 50.91042 34035 ft 483 kts 246°
2026-05-07 22:33 -17.50421 50.84629 34035 ft 484 kts 246°
2026-05-07 22:34 -17.53199 50.78196 34036 ft 484 kts 246°
2026-05-07 22:34 -17.55974 50.71764 34032 ft 484 kts 246°
2026-05-07 22:35 -17.58750 50.65326 34035 ft 484 kts 246°
2026-05-07 22:35 -17.61508 50.58923 34036 ft 485 kts 246°
2026-05-07 22:36 -17.64282 50.52474 34036 ft 485 kts 246°
2026-05-07 22:36 -17.67054 50.46023 34035 ft 485 kts 246°
2026-05-07 22:37 -17.69809 50.39607 34039 ft 485 kts 246°
2026-05-07 22:37 -17.72580 50.33143 34041 ft 486 kts 246°
2026-05-07 22:38 -17.75354 50.26669 34049 ft 486 kts 246°
2026-05-07 22:38 -17.78123 50.20198 34043 ft 486 kts 246°
2026-05-07 22:39 -17.80886 50.13733 34048 ft 486 kts 246°
2026-05-07 22:39 -17.83655 50.07249 34047 ft 486 kts 246°
2026-05-07 22:40 -17.86403 50.00805 34049 ft 486 kts 246°
2026-05-07 22:40 -17.89170 49.94318 34051 ft 486 kts 246°
2026-05-07 22:41 -17.91465 49.88930 34050 ft 486 kts 246°
2026-05-07 22:41 -17.94217 49.82450 34052 ft 486 kts 246°
2026-05-07 22:42 -17.96971 49.75962 34058 ft 486 kts 246°
2026-05-07 22:42 -17.99720 49.69481 34059 ft 486 kts 246°
2026-05-07 22:43 -18.02466 49.63001 34069 ft 485 kts 246°
2026-05-07 22:43 -18.05215 49.56507 34072 ft 485 kts 246°
2026-05-07 22:44 -18.07957 49.50022 34075 ft 485 kts 246°
2026-05-07 22:44 -18.10680 49.43576 34075 ft 485 kts 246°
2026-05-07 22:45 -18.13401 49.37079 34077 ft 485 kts 248°
2026-05-07 22:45 -18.15854 49.30465 34076 ft 485 kts 250°
2026-05-07 22:46 -18.18213 49.23821 34082 ft 485 kts 250°
2026-05-07 22:46 -18.20590 49.17233 34093 ft 484 kts 249°
2026-05-07 22:47 -18.23011 49.10609 34103 ft 484 kts 249°
2026-05-07 22:47 -18.25436 49.03991 34120 ft 484 kts 249°
2026-05-07 22:48 -18.27862 48.97367 34113 ft 484 kts 249°
2026-05-07 22:48 -18.30279 48.90752 34127 ft 484 kts 249°
2026-05-07 22:49 -18.32680 48.84171 34125 ft 484 kts 249°
2026-05-07 22:49 -18.35091 48.77554 34136 ft 484 kts 249°
2026-05-07 22:50 -18.37502 48.70929 34138 ft 484 kts 249°
2026-05-07 22:50 -18.39912 48.64312 34151 ft 484 kts 249°
2026-05-07 22:51 -18.42315 48.57690 34149 ft 483 kts 249°
2026-05-07 22:51 -18.44712 48.51075 34154 ft 483 kts 249°
2026-05-07 22:52 -18.47093 48.44501 34163 ft 483 kts 249°
2026-05-07 22:52 -18.49485 48.37888 34164 ft 482 kts 249°
2026-05-07 22:53 -18.51871 48.31288 34164 ft 482 kts 249°
2026-05-07 22:53 -18.54254 48.24685 34168 ft 482 kts 249°
2026-05-07 22:54 -18.56618 48.18126 34173 ft 481 kts 250°
2026-05-07 22:54 -18.58993 48.11529 34181 ft 481 kts 250°
2026-05-07 22:55 -18.61366 48.04930 34186 ft 481 kts 250°
2026-05-07 22:55 -18.63738 47.98326 34184 ft 480 kts 250°
2026-05-07 22:56 -18.66098 47.91746 34185 ft 479 kts 250°
2026-05-07 22:56 -18.68453 47.85172 34190 ft 479 kts 250°
2026-05-07 22:57 -18.70788 47.78644 34197 ft 479 kts 250°
2026-05-07 22:57 -18.73137 47.72072 34200 ft 478 kts 250°
2026-05-07 22:58 -18.75475 47.65520 34207 ft 477 kts 250°
2026-05-07 22:58 -18.77818 47.58947 34207 ft 477 kts 250°
2026-05-07 22:59 -18.80199 47.52403 34213 ft 477 kts 246°
2026-05-07 22:59 -18.83054 47.46133 34210 ft 477 kts 244°
2026-05-07 23:00 -18.86032 47.39863 34209 ft 477 kts 244°
2026-05-07 23:00 -18.89025 47.33602 34208 ft 477 kts 244°
2026-05-07 23:01 -18.92007 47.27342 34211 ft 477 kts 244°
2026-05-07 23:01 -18.94981 47.21078 34200 ft 476 kts 244°
2026-05-07 23:02 -18.97948 47.14818 34194 ft 476 kts 244°
2026-05-07 23:02 -19.00893 47.08598 34187 ft 476 kts 244°
2026-05-07 23:03 -19.03853 47.02339 34183 ft 476 kts 244°
2026-05-07 23:03 -19.06809 46.96083 34170 ft 476 kts 244°
2026-05-07 23:04 -19.09761 46.89828 34169 ft 475 kts 245°
2026-05-07 23:04 -19.12708 46.83578 34169 ft 474 kts 245°
2026-05-07 23:05 -19.15650 46.77334 34161 ft 474 kts 245°
2026-05-07 23:05 -19.18592 46.71079 34149 ft 474 kts 245°
2026-05-07 23:06 -19.21527 46.64834 34146 ft 474 kts 245°
2026-05-07 23:06 -19.24463 46.58580 34147 ft 474 kts 245°
2026-05-07 23:07 -19.27381 46.52369 34134 ft 474 kts 245°
2026-05-07 23:07 -19.30304 46.46122 34124 ft 473 kts 245°
2026-05-07 23:08 -19.33229 46.39864 34116 ft 473 kts 245°
2026-05-07 23:08 -19.36146 46.33619 34121 ft 473 kts 245°
2026-05-07 23:09 -19.39059 46.27378 34115 ft 472 kts 245°
2026-05-07 23:09 -19.41965 46.21146 34106 ft 472 kts 245°
2026-05-07 23:10 -19.44847 46.14958 34097 ft 471 kts 245°
2026-05-07 23:10 -19.47749 46.08720 34096 ft 471 kts 245°
2026-05-07 23:11 -19.50646 46.02485 34090 ft 471 kts 245°
2026-05-07 23:11 -19.53543 45.96245 34084 ft 471 kts 245°
2026-05-07 23:12 -19.56413 45.90057 34075 ft 470 kts 245°
2026-05-07 23:12 -19.59292 45.83841 34065 ft 469 kts 245°
2026-05-07 23:13 -19.62169 45.77623 34067 ft 469 kts 245°
2026-05-07 23:13 -19.65040 45.71412 34052 ft 469 kts 245°
2026-05-07 23:14 -19.67908 45.65198 34052 ft 469 kts 246°
2026-05-07 23:14 -19.70757 45.59022 34035 ft 468 kts 246°
2026-05-07 23:15 -19.73617 45.52813 34028 ft 468 kts 246°
2026-05-07 23:15 -19.76473 45.46609 34020 ft 467 kts 246°
2026-05-07 23:16 -19.79322 45.40410 34014 ft 467 kts 246°
2026-05-07 23:16 -19.82170 45.34205 34022 ft 467 kts 246°
2026-05-07 23:17 -19.84996 45.28045 34013 ft 466 kts 246°
2026-05-07 23:17 -19.87833 45.21853 34007 ft 466 kts 246°
2026-05-07 23:18 -19.90667 45.15659 34007 ft 465 kts 246°
2026-05-07 23:18 -19.93500 45.09465 34007 ft 465 kts 246°
2026-05-07 23:19 -19.96306 45.03319 34012 ft 465 kts 246°
2026-05-07 23:19 -19.99131 44.97124 33995 ft 465 kts 246°
2026-05-07 23:20 -20.01949 44.90939 34003 ft 464 kts 246°
2026-05-07 23:20 -20.04762 44.84758 34003 ft 464 kts 246°
2026-05-07 23:21 -20.07574 44.78572 34002 ft 464 kts 247°
2026-05-07 23:21 -20.10365 44.72426 34002 ft 464 kts 247°
2026-05-07 23:22 -20.13176 44.66228 33992 ft 464 kts 247°
2026-05-07 23:22 -20.15979 44.60043 33986 ft 464 kts 247°
2026-05-07 23:23 -20.18784 44.53844 33986 ft 464 kts 247°
2026-05-07 23:23 -20.21583 44.47652 33985 ft 464 kts 247°
2026-05-07 23:24 -20.24390 44.41434 34125 ft 468 kts 247°
2026-05-07 23:24 -20.25797 44.38314 34530 ft 467 kts 247°
2026-05-07 23:24 -20.27202 44.35200 35038 ft 465 kts 247°
2026-05-07 23:24 -20.28583 44.32139 35492 ft 463 kts 247°
2026-05-07 23:25 -20.30009 44.29065 35868 ft 464 kts 245°
2026-05-07 23:25 -20.31560 44.26055 35973 ft 463 kts 243°
2026-05-07 23:25 -20.33178 44.23087 35980 ft 463 kts 243°
2026-05-07 23:26 -20.36446 44.17166 35980 ft 463 kts 243°
2026-05-07 23:26 -20.39664 44.11212 35978 ft 463 kts 244°
2026-05-07 23:27 -20.44408 44.02277 35979 ft 454 kts 244°
2026-05-07 23:27 -20.47555 43.96314 35980 ft 465 kts 244°
2026-05-07 23:28 -20.50697 43.90367 35977 ft 462 kts 244°
2026-05-07 23:28 -20.53845 43.84405 35978 ft 461 kts 244°
2026-05-07 23:29 -20.56996 43.78432 35975 ft 461 kts 244°
2026-05-07 23:29 -20.60137 43.72469 35979 ft 461 kts 244°
2026-05-07 23:30 -20.62748 43.67510 35977 ft 461 kts 244°
2026-05-07 23:30 -20.66402 43.60560 35980 ft 461 kts 244°
2026-05-07 23:31 -20.69007 43.55600 35974 ft 461 kts 244°
2026-05-07 23:31 -20.72146 43.49618 35980 ft 461 kts 244°
2026-05-07 23:32 -20.75280 43.43639 35981 ft 461 kts 244°
2026-05-07 23:32 -20.78414 43.37654 35979 ft 461 kts 245°
2026-05-07 23:33 -20.81539 43.31679 35975 ft 461 kts 245°
2026-05-07 23:33 -20.84648 43.25729 35973 ft 461 kts 245°
2026-05-07 23:34 -20.87769 43.19749 35975 ft 460 kts 245°
2026-05-07 23:34 -20.90886 43.13769 35974 ft 460 kts 245°
2026-05-07 23:35 -20.94005 43.07781 35973 ft 460 kts 245°
2026-05-07 23:35 -20.97119 43.01795 35988 ft 460 kts 245°
2026-05-07 23:36 -21.00232 42.95804 35980 ft 460 kts 245°
2026-05-07 23:36 -21.03346 42.89805 35983 ft 460 kts 245°
2026-05-07 23:37 -21.06457 42.83805 35977 ft 460 kts 245°
2026-05-07 23:37 -21.09544 42.77845 35976 ft 460 kts 245°
2026-05-07 23:38 -21.12651 42.71841 35969 ft 460 kts 245°
2026-05-07 23:38 -21.15749 42.65845 35974 ft 460 kts 245°
2026-05-07 23:39 -21.18849 42.59842 35978 ft 460 kts 245°
2026-05-07 23:39 -21.21948 42.53832 35980 ft 460 kts 245°
2026-05-07 23:40 -21.25026 42.47855 35973 ft 460 kts 245°
2026-05-07 23:40 -21.28120 42.41843 35978 ft 460 kts 245°
2026-05-07 23:41 -21.31211 42.35830 35986 ft 460 kts 245°
2026-05-07 23:41 -21.34306 42.29801 35974 ft 460 kts 245°
2026-05-07 23:42 -21.37392 42.23783 35981 ft 460 kts 245°
2026-05-07 23:42 -21.40454 42.17807 35980 ft 460 kts 246°
2026-05-07 23:43 -21.43535 42.11784 35987 ft 460 kts 246°
2026-05-07 23:43 -21.46616 42.05756 35979 ft 460 kts 246°
2026-05-07 23:44 -21.49689 41.99738 35978 ft 460 kts 246°
2026-05-07 23:44 -21.52763 41.93709 35980 ft 460 kts 246°
2026-05-07 23:45 -21.55809 41.87731 35972 ft 454 kts 246°
2026-05-07 23:45 -21.57292 41.84835 35997 ft 428 kts 246°
2026-05-07 23:45 -21.58681 41.82135 35973 ft 398 kts 246°
2026-05-07 23:46 -21.59978 41.79612 35975 ft 372 kts 247°
2026-05-07 23:46 -21.61183 41.77260 35983 ft 347 kts 247°
2026-05-07 23:46 -21.62306 41.75057 35976 ft 326 kts 248°
2026-05-07 23:46 -21.63370 41.72957 35979 ft 317 kts 248°
2026-05-07 23:47 -21.65400 41.68917 35978 ft 304 kts 249°
2026-05-07 23:47 -21.67395 41.64943 35979 ft 300 kts 249°
2026-05-07 23:48 -21.68387 41.62973 35980 ft 299 kts 249°
2026-05-07 23:48 -21.69375 41.61018 35979 ft 297 kts 249°
2026-05-07 23:48 -21.70364 41.59063 35979 ft 296 kts 248°
2026-05-07 23:48 -21.71344 41.57126 35978 ft 295 kts 249°
2026-05-07 23:49 -21.72324 41.55189 35980 ft 293 kts 249°
2026-05-07 23:49 -21.73297 41.53267 35976 ft 294 kts 249°
2026-05-07 23:49 -21.74280 41.51316 35974 ft 299 kts 249°
2026-05-07 23:49 -21.75278 41.49332 35967 ft 305 kts 249°
2026-05-07 23:50 -21.77338 41.45229 35974 ft 323 kts 248°
2026-05-07 23:50 -21.79544 41.40844 35978 ft 344 kts 248°
2026-05-07 23:51 -21.80704 41.38542 35977 ft 355 kts 248°
2026-05-07 23:51 -21.81898 41.36175 35983 ft 366 kts 248°
2026-05-07 23:51 -21.83130 41.33731 35990 ft 377 kts 248°
2026-05-07 23:51 -21.84400 41.31211 35978 ft 389 kts 248°
2026-05-07 23:52 -21.85709 41.28612 35982 ft 400 kts 247°
2026-05-07 23:52 -21.87053 41.25944 35979 ft 411 kts 247°
2026-05-07 23:52 -21.88436 41.23196 35979 ft 423 kts 247°
2026-05-07 23:52 -21.89857 41.20371 35978 ft 434 kts 247°
2026-05-07 23:53 -21.91312 41.17478 35974 ft 445 kts 247°
2026-05-07 23:53 -21.92800 41.14519 35976 ft 455 kts 246°
2026-05-07 23:53 -21.95839 41.08481 35973 ft 459 kts 246°
2026-05-07 23:54 -21.98878 41.02440 35971 ft 458 kts 247°
2026-05-07 23:54 -22.01892 40.96428 35969 ft 458 kts 247°
2026-05-07 23:55 -22.04919 40.90376 35978 ft 458 kts 247°
2026-05-07 23:55 -22.07942 40.84324 35966 ft 458 kts 247°
2026-05-07 23:56 -22.10961 40.78270 35966 ft 458 kts 247°
2026-05-07 23:56 -22.13960 40.72254 35964 ft 458 kts 247°
2026-05-07 23:57 -22.16971 40.66204 35966 ft 458 kts 247°
2026-05-07 23:57 -22.19986 40.60140 35966 ft 458 kts 247°
2026-05-07 23:58 -22.22995 40.54077 35966 ft 458 kts 247°
2026-05-07 23:58 -22.25983 40.48047 35966 ft 458 kts 247°
2026-05-07 23:59 -22.28986 40.41982 35966 ft 457 kts 247°
2026-05-07 23:59 -22.31985 40.35918 35967 ft 457 kts 247°
2026-05-08 00:00 -22.34980 40.29855 35968 ft 457 kts 247°
2026-05-08 00:00 -22.37973 40.23787 35974 ft 457 kts 247°
2026-05-08 00:01 -22.40961 40.17724 35966 ft 457 kts 247°
2026-05-08 00:01 -22.43926 40.11700 35966 ft 457 kts 247°
2026-05-08 00:02 -22.46907 40.05636 35966 ft 456 kts 247°
2026-05-08 00:02 -22.49889 39.99565 35962 ft 456 kts 247°
2026-05-08 00:03 -22.52862 39.93514 35962 ft 455 kts 247°
2026-05-08 00:03 -22.55825 39.87463 35962 ft 455 kts 247°
2026-05-08 00:04 -22.58770 39.81441 35968 ft 455 kts 247°
2026-05-08 00:04 -22.61733 39.75381 35966 ft 454 kts 248°
2026-05-08 00:05 -22.64683 39.69340 35961 ft 454 kts 248°
2026-05-08 00:05 -22.67631 39.63295 35960 ft 454 kts 248°
2026-05-08 00:06 -22.70579 39.57243 35975 ft 454 kts 248°
2026-05-08 00:06 -22.73520 39.51199 35961 ft 453 kts 248°
2026-05-08 00:07 -22.76437 39.45196 35960 ft 453 kts 248°
2026-05-08 00:07 -22.79373 39.39147 35958 ft 453 kts 248°
2026-05-08 00:08 -22.82303 39.33102 35960 ft 453 kts 248°
2026-05-08 00:08 -22.85234 39.27052 35956 ft 452 kts 248°
2026-05-08 00:09 -22.88134 39.21054 35961 ft 452 kts 248°
2026-05-08 00:09 -22.91053 39.15010 35959 ft 452 kts 248°
2026-05-08 00:10 -22.93969 39.08967 35944 ft 451 kts 247°
2026-05-08 00:10 -22.96876 39.02935 35960 ft 451 kts 247°
2026-05-08 00:11 -22.99781 38.96898 35947 ft 451 kts 248°
2026-05-08 00:11 -23.02663 38.90902 35944 ft 451 kts 248°
2026-05-08 00:12 -23.05562 38.84863 35949 ft 450 kts 247°
2026-05-08 00:12 -23.08460 38.78820 35955 ft 451 kts 248°
2026-05-08 00:13 -23.11361 38.72761 35952 ft 452 kts 248°
2026-05-08 00:13 -23.14260 38.66702 35952 ft 452 kts 248°
2026-05-08 00:14 -23.17156 38.60642 35946 ft 452 kts 247°
2026-05-08 00:14 -23.20051 38.54575 35946 ft 451 kts 247°
2026-05-08 00:15 -23.22926 38.48543 35950 ft 451 kts 247°
2026-05-08 00:15 -23.25814 38.42474 35949 ft 451 kts 248°
2026-05-08 00:16 -23.28701 38.36403 35944 ft 451 kts 248°
2026-05-08 00:16 -23.31583 38.30333 35944 ft 451 kts 248°
2026-05-08 00:17 -23.34445 38.24297 35944 ft 451 kts 248°
2026-05-08 00:17 -23.37324 38.18220 35953 ft 451 kts 248°
2026-05-08 00:18 -23.40198 38.12145 35944 ft 450 kts 248°
2026-05-08 00:18 -23.43064 38.06079 35943 ft 450 kts 248°
2026-05-08 00:19 -23.45907 38.00052 35941 ft 450 kts 248°
2026-05-08 00:19 -23.48766 37.93987 35946 ft 450 kts 248°
2026-05-08 00:20 -23.51155 37.88911 35946 ft 449 kts 248°
2026-05-08 00:20 -23.53987 37.82889 35940 ft 449 kts 248°
2026-05-08 00:21 -23.56834 37.76826 35943 ft 449 kts 248°
2026-05-08 00:21 -23.59683 37.70751 35954 ft 449 kts 248°
2026-05-08 00:22 -23.62526 37.64682 35940 ft 449 kts 248°
2026-05-08 00:22 -23.65364 37.58614 35937 ft 449 kts 248°
2026-05-08 00:23 -23.68184 37.52580 35940 ft 449 kts 248°
2026-05-08 00:23 -23.71018 37.46505 35947 ft 449 kts 248°
2026-05-08 00:24 -23.73851 37.40428 35938 ft 449 kts 248°
2026-05-08 00:24 -23.76685 37.34337 35938 ft 450 kts 248°
2026-05-08 00:25 -23.79519 37.28245 35938 ft 450 kts 248°
2026-05-08 00:25 -23.82326 37.22200 35944 ft 450 kts 248°
2026-05-08 00:26 -23.85151 37.16104 35933 ft 450 kts 248°
2026-05-08 00:26 -23.87977 37.10001 35933 ft 450 kts 248°
2026-05-08 00:27 -23.90804 37.03888 35933 ft 450 kts 248°
2026-05-08 00:27 -23.93627 36.97777 35938 ft 450 kts 248°
2026-05-08 00:28 -23.96445 36.91668 35934 ft 450 kts 248°
2026-05-08 00:28 -23.99245 36.85589 35935 ft 450 kts 248°
2026-05-08 00:29 -24.02062 36.79467 35934 ft 450 kts 248°
2026-05-08 00:29 -24.04879 36.73337 35938 ft 450 kts 248°
2026-05-08 00:30 -24.07700 36.67212 35935 ft 450 kts 248°
2026-05-08 00:30 -24.10519 36.61098 35935 ft 450 kts 248°
2026-05-08 00:31 -24.13316 36.55020 35933 ft 450 kts 248°
2026-05-08 00:31 -24.16131 36.48894 35941 ft 450 kts 248°
2026-05-08 00:32 -24.18942 36.42766 35935 ft 450 kts 248°
2026-05-08 00:32 -24.21755 36.36628 35928 ft 450 kts 248°
2026-05-08 00:33 -24.24562 36.30494 35933 ft 450 kts 248°
2026-05-08 00:33 -24.27367 36.24355 35932 ft 450 kts 248°
2026-05-08 00:34 -24.30151 36.18256 35930 ft 449 kts 248°
2026-05-08 00:34 -24.32946 36.12125 35930 ft 449 kts 248°
2026-05-08 00:35 -24.35735 36.05996 35958 ft 449 kts 249°
2026-05-08 00:35 -24.38524 35.99863 35933 ft 449 kts 249°
2026-05-08 00:36 -24.41304 35.93738 35930 ft 448 kts 249°
2026-05-08 00:36 -24.44065 35.87647 35930 ft 448 kts 249°
2026-05-08 00:37 -24.46843 35.81512 35933 ft 448 kts 249°
2026-05-08 00:38 -24.51002 35.72312 35934 ft 448 kts 249°
2026-05-08 00:38 -24.53773 35.66170 35933 ft 448 kts 249°
2026-05-08 00:39 -24.56541 35.60030 35933 ft 449 kts 249°
2026-05-08 00:39 -24.59308 35.53880 35933 ft 448 kts 249°
2026-05-08 00:40 -24.62070 35.47737 35931 ft 448 kts 249°
2026-05-08 00:40 -24.64814 35.41624 35930 ft 448 kts 249°
2026-05-08 00:41 -24.67573 35.35469 35930 ft 448 kts 249°
2026-05-08 00:41 -24.70329 35.29312 35933 ft 448 kts 249°
2026-05-08 00:42 -24.73080 35.23158 35943 ft 448 kts 249°
2026-05-08 00:42 -24.75821 35.17022 35932 ft 445 kts 250°
2026-05-08 00:43 -24.78532 35.10941 35930 ft 445 kts 250°
2026-05-08 00:43 -24.81255 35.04822 35930 ft 445 kts 250°
2026-05-08 00:44 -24.83977 34.98701 35962 ft 445 kts 250°
2026-05-08 00:44 -24.86687 34.92600 35935 ft 441 kts 250°
2026-05-08 00:45 -24.89378 34.86532 35930 ft 440 kts 250°
2026-05-08 00:45 -24.92046 34.80506 35930 ft 440 kts 250°
2026-05-08 00:46 -24.94728 34.74439 35932 ft 440 kts 250°
2026-05-08 00:46 -24.97405 34.68379 35934 ft 438 kts 250°
2026-05-08 00:47 -25.00072 34.62333 35957 ft 438 kts 250°
2026-05-08 00:47 -25.02392 34.56194 35930 ft 429 kts 259°
2026-05-08 00:48 -25.03481 34.49789 35931 ft 423 kts 266°
2026-05-08 00:48 -25.04228 34.43389 35942 ft 423 kts 266°
2026-05-08 00:49 -25.04927 34.36937 35934 ft 423 kts 266°
2026-05-08 00:49 -25.05637 34.30492 35933 ft 423 kts 266°
2026-05-08 00:50 -25.06358 34.24043 35933 ft 423 kts 266°
2026-05-08 00:50 -25.07081 34.17599 35931 ft 422 kts 266°
2026-05-08 00:51 -25.07794 34.11221 35937 ft 421 kts 266°
2026-05-08 00:51 -25.08508 34.04803 35938 ft 421 kts 266°
2026-05-08 00:52 -25.09218 33.98381 35933 ft 421 kts 266°
2026-05-08 00:52 -25.09926 33.91963 35940 ft 421 kts 267°
2026-05-08 00:53 -25.10625 33.85601 35936 ft 420 kts 267°
2026-05-08 00:53 -25.11324 33.79203 35936 ft 420 kts 267°
2026-05-08 00:54 -25.12021 33.72802 35935 ft 420 kts 267°
2026-05-08 00:54 -25.12715 33.66404 35943 ft 420 kts 267°
2026-05-08 00:55 -25.13407 33.60007 35937 ft 419 kts 267°
2026-05-08 00:55 -25.14089 33.53665 35935 ft 418 kts 267°
2026-05-08 00:56 -25.14772 33.47288 35943 ft 418 kts 267°
2026-05-08 00:56 -25.15453 33.40903 35939 ft 418 kts 267°
2026-05-08 00:57 -25.16131 33.34523 35938 ft 418 kts 267°
2026-05-08 00:57 -25.16808 33.28133 35935 ft 419 kts 267°
2026-05-08 00:58 -25.17480 33.21752 35936 ft 419 kts 267°
2026-05-08 00:58 -25.18151 33.15369 35939 ft 418 kts 267°
2026-05-08 00:59 -25.18814 33.09031 35928 ft 417 kts 267°
2026-05-08 00:59 -25.19477 33.02659 35924 ft 417 kts 267°
2026-05-08 01:00 -25.20136 32.96292 35924 ft 417 kts 267°
2026-05-08 01:00 -25.20793 32.89924 35929 ft 417 kts 268°
2026-05-08 01:01 -25.21447 32.83558 35930 ft 417 kts 267°
2026-05-08 01:01 -25.22098 32.77201 35915 ft 416 kts 268°
2026-05-08 01:02 -25.22746 32.70835 35908 ft 417 kts 267°
2026-05-08 01:02 -25.23388 32.64505 35926 ft 418 kts 267°
2026-05-08 01:03 -25.24033 32.58115 35928 ft 418 kts 267°
2026-05-08 01:03 -25.24675 32.51746 35922 ft 417 kts 267°
2026-05-08 01:04 -25.25312 32.45381 35928 ft 417 kts 267°
2026-05-08 01:04 -25.25946 32.39016 35933 ft 417 kts 267°
2026-05-08 01:05 -25.26579 32.32643 35929 ft 416 kts 267°
2026-05-08 01:05 -25.27203 32.26332 35933 ft 415 kts 267°
2026-05-08 01:06 -25.27827 32.19988 35942 ft 415 kts 267°
2026-05-08 01:06 -25.28448 32.13641 35942 ft 415 kts 267°
2026-05-08 01:07 -25.29067 32.07298 35965 ft 415 kts 267°
2026-05-08 01:07 -25.29682 32.00959 35944 ft 414 kts 267°
2026-05-08 01:08 -25.30191 31.95693 35947 ft 414 kts 268°
2026-05-08 01:08 -25.30899 31.88337 35947 ft 414 kts 268°
2026-05-08 01:09 -25.31403 31.83071 35954 ft 414 kts 268°
2026-05-08 01:09 -25.32008 31.76739 35959 ft 414 kts 268°
2026-05-08 01:10 -25.32607 31.70426 35961 ft 413 kts 268°
2026-05-08 01:10 -25.33205 31.64105 35964 ft 413 kts 268°
2026-05-08 01:11 -25.33798 31.57792 35966 ft 413 kts 268°
2026-05-08 01:11 -25.34390 31.51473 36006 ft 413 kts 268°
2026-05-08 01:12 -25.34976 31.45183 35985 ft 410 kts 268°
2026-05-08 01:12 -25.35557 31.38925 36014 ft 409 kts 268°
2026-05-08 01:13 -25.36131 31.32714 36034 ft 408 kts 268°
2026-05-08 01:13 -25.36706 31.26465 36055 ft 408 kts 268°
2026-05-08 01:14 -25.37277 31.20218 36082 ft 406 kts 268°
2026-05-08 01:14 -25.37843 31.14014 36067 ft 404 kts 268°
2026-05-08 01:15 -25.38891 31.07917 36079 ft 409 kts 261°
2026-05-08 01:15 -25.40314 31.01825 36079 ft 409 kts 260°
2026-05-08 01:16 -25.41793 30.95739 36070 ft 410 kts 260°
2026-05-08 01:16 -25.43272 30.89640 36037 ft 411 kts 260°
2026-05-08 01:17 -25.44743 30.83520 36032 ft 412 kts 260°
2026-05-08 01:17 -25.46200 30.77429 36034 ft 412 kts 260°
2026-05-08 01:18 -25.47663 30.71305 36060 ft 412 kts 260°
2026-05-08 01:18 -25.49122 30.65183 36056 ft 411 kts 260°
2026-05-08 01:19 -25.50578 30.59056 36082 ft 412 kts 260°
2026-05-08 01:19 -25.52034 30.52924 36079 ft 411 kts 260°
2026-05-08 01:20 -25.53483 30.46801 36096 ft 411 kts 260°
2026-05-08 01:20 -25.54928 30.40682 36098 ft 411 kts 260°
2026-05-08 01:21 -25.56374 30.34543 36111 ft 412 kts 261°
2026-05-08 01:21 -25.57820 30.28391 36130 ft 412 kts 261°
2026-05-08 01:22 -25.59255 30.22280 36126 ft 412 kts 261°
2026-05-08 01:22 -25.60697 30.16123 36132 ft 412 kts 261°
2026-05-08 01:23 -25.62137 30.09964 36138 ft 412 kts 261°
2026-05-08 01:23 -25.63539 30.03801 36144 ft 411 kts 263°
2026-05-08 01:24 -25.64617 29.97580 36149 ft 411 kts 264°
2026-05-08 01:24 -25.65646 29.91347 36154 ft 410 kts 264°
2026-05-08 01:25 -25.66660 29.85156 36151 ft 410 kts 264°
2026-05-08 01:25 -25.67676 29.78928 36168 ft 411 kts 264°
2026-05-08 01:26 -25.68686 29.72729 35917 ft 403 kts 264°
2026-05-08 01:26 -25.69184 29.69668 35212 ft 402 kts 264°
2026-05-08 01:26 -25.69677 29.66619 34497 ft 402 kts 264°
2026-05-08 01:26 -25.70171 29.63569 33815 ft 400 kts 264°
2026-05-08 01:27 -25.70660 29.60541 33130 ft 397 kts 264°
2026-05-08 01:27 -25.71146 29.57534 32503 ft 394 kts 264°
2026-05-08 01:27 -25.71622 29.54586 31893 ft 391 kts 264°
2026-05-08 01:27 -25.72099 29.51626 31347 ft 388 kts 263°
2026-05-08 01:28 -25.72570 29.48696 30807 ft 384 kts 263°
2026-05-08 01:28 -25.73037 29.45788 30219 ft 381 kts 263°
2026-05-08 01:28 -25.73499 29.42902 29532 ft 379 kts 263°
2026-05-08 01:28 -25.73959 29.40033 28879 ft 377 kts 263°
2026-05-08 01:29 -25.74416 29.37178 28254 ft 374 kts 264°
2026-05-08 01:29 -25.74867 29.34350 27604 ft 371 kts 263°
2026-05-08 01:29 -25.75315 29.31538 26972 ft 370 kts 264°
2026-05-08 01:29 -25.75761 29.28739 26411 ft 367 kts 264°
2026-05-08 01:30 -25.76204 29.25958 25833 ft 364 kts 264°
2026-05-08 01:30 -25.76642 29.23202 25288 ft 362 kts 264°
2026-05-08 01:30 -25.77077 29.20461 24748 ft 359 kts 264°
2026-05-08 01:30 -25.77508 29.17742 24193 ft 357 kts 264°
2026-05-08 01:31 -25.77935 29.15045 23609 ft 355 kts 264°
2026-05-08 01:31 -25.78355 29.12388 22957 ft 353 kts 264°
2026-05-08 01:31 -25.78778 29.09709 22301 ft 351 kts 263°
2026-05-08 01:31 -25.79197 29.07050 21662 ft 349 kts 263°
2026-05-08 01:32 -25.79614 29.04400 21035 ft 347 kts 263°
2026-05-08 01:32 -25.80029 29.01763 20420 ft 346 kts 263°
2026-05-08 01:32 -25.80442 28.99139 19813 ft 344 kts 263°
2026-05-08 01:32 -25.80851 28.96527 19227 ft 342 kts 263°
2026-05-08 01:33 -25.81259 28.93929 18648 ft 341 kts 263°
2026-05-08 01:33 -25.81663 28.91347 18027 ft 339 kts 262°
2026-05-08 01:33 -25.82065 28.88773 17409 ft 336 kts 262°
2026-05-08 01:33 -25.82463 28.86229 16824 ft 333 kts 262°
2026-05-08 01:34 -25.82856 28.83709 16250 ft 330 kts 262°
2026-05-08 01:34 -25.83241 28.81241 15691 ft 327 kts 262°
2026-05-08 01:34 -25.83626 28.78767 15313 ft 324 kts 261°
2026-05-08 01:34 -25.84011 28.76291 15201 ft 325 kts 261°
2026-05-08 01:35 -25.84395 28.73815 15195 ft 325 kts 261°
2026-05-08 01:35 -25.84776 28.71362 14961 ft 319 kts 261°
2026-05-08 01:35 -25.85152 28.68937 14349 ft 319 kts 261°
2026-05-08 01:35 -25.85527 28.66511 13710 ft 318 kts 261°
2026-05-08 01:36 -25.85901 28.64094 13048 ft 317 kts 261°
2026-05-08 01:36 -25.86273 28.61690 12387 ft 316 kts 261°
2026-05-08 01:36 -25.86639 28.59318 11754 ft 315 kts 261°
2026-05-08 01:36 -25.87007 28.56930 11144 ft 313 kts 261°
2026-05-08 01:37 -25.87372 28.54553 10679 ft 309 kts 261°
2026-05-08 01:37 -25.87723 28.52271 10638 ft 290 kts 261°
2026-05-08 01:37 -25.88055 28.50111 10631 ft 277 kts 261°
2026-05-08 01:37 -25.88377 28.48010 10628 ft 276 kts 261°
2026-05-08 01:38 -25.88700 28.45905 10635 ft 276 kts 261°
2026-05-08 01:38 -25.89021 28.43805 10584 ft 276 kts 261°
2026-05-08 01:38 -25.89342 28.41709 10406 ft 275 kts 261°
2026-05-08 01:38 -25.89658 28.39642 10184 ft 275 kts 261°
2026-05-08 01:39 -25.89976 28.37557 9950 ft 271 kts 261°
2026-05-08 01:39 -25.90283 28.35546 9797 ft 258 kts 260°
2026-05-08 01:39 -25.90578 28.33616 9676 ft 251 kts 260°
2026-05-08 01:39 -25.91095 28.31797 9603 ft 241 kts 241°
2026-05-08 01:40 -25.92229 28.30505 9501 ft 232 kts 214°
2026-05-08 01:40 -25.93715 28.29849 9236 ft 231 kts 197°
2026-05-08 01:40 -25.95285 28.29455 8881 ft 230 kts 197°
2026-05-08 01:40 -25.96824 28.28971 8519 ft 227 kts 199°
2026-05-08 01:41 -25.98269 28.28503 8225 ft 211 kts 198°
2026-05-08 01:41 -25.99616 28.28093 7955 ft 192 kts 197°
2026-05-08 01:41 -26.00851 28.27710 7700 ft 175 kts 198°
2026-05-08 01:41 -26.01957 28.27365 7472 ft 158 kts 197°
2026-05-08 01:42 -26.02963 28.27053 7277 ft 143 kts 197°
2026-05-08 01:42 -26.03876 28.26771 7091 ft 130 kts 197°
2026-05-08 01:42 -26.04726 28.26505 6946 ft 125 kts 197°
2026-05-08 01:42 -26.05563 28.26248 6780 ft 125 kts 197°
2026-05-08 01:43 -26.06394 28.26005 6630 ft 124 kts 196°
2026-05-08 01:43 -26.07234 28.25756 6497 ft 125 kts 195°
2026-05-08 01:43 -26.08073 28.25491 6241 ft 125 kts 197°
2026-05-08 01:43 -26.08910 28.25218 6041 ft 126 kts 196°
2026-05-08 01:44 -26.09767 28.24955 5851 ft 129 kts 195°
2026-05-08 01:44 -26.10632 28.24681 5666 ft 130 kts 198°
2026-05-08 01:44 -26.11488 28.24413 5545 ft 129 kts 197°
2026-05-08 01:44 -26.12268 28.24170 5542 ft 100 kts 195°
2026-05-08 01:45 -26.12826 28.23999 5553 ft 58 kts 195°
2026-05-08 01:45 -26.13084 28.23917 5555 ft 28 kts 195°
2026-05-08 01:45 -26.13178 28.23888 5554 ft 9 kts 197°
2026-05-08 01:45 -26.13195 28.23836 5556 ft 8 kts 289°
2026-05-08 01:46 -26.13154 28.23772 5556 ft 11 kts 299°
2026-05-08 01:46 -26.13135 28.23674 5555 ft 11 kts 277°
2026-05-08 01:46 -26.13128 28.23605 5552 ft 9 kts 277°
2026-05-08 01:46 -26.13120 28.23531 5556 ft 8 kts 277°
2026-05-08 01:47 -26.13113 28.23481 5555 ft 4 kts 287°
2026-05-08 01:47 -26.13098 28.23467 5558 ft 2 kts 336°
2026-05-08 01:47 -26.13072 28.23465 5556 ft 3 kts 358°
2026-05-08 01:48 -26.13029 28.23469 5555 ft 1 kts
2026-05-08 01:48 -26.13026 28.23469 5556 ft 0 kts